Location: Asheville, NC
(35.6000°N, 82.5500°W)
Time: 22:14:43
(UTC-04:00)

Vanguard 2 Rocket - Pass Details

Date: 10 December 2017
Orbit: 554 x 3327 km, 32.9° (Epoch: 20 July)

Event Time Altitude Azimuth Distance (km) Brightness Sun altitude
Rises 23:49:02 0° 272° (W) 6,541 11.4 -75.3°
Reaches altitude 10° 23:52:57 10° 271° (W) 5,772 11.0 -75.7°
Enters shadow 23:54:29 14° 271° (W) 5,480 10.8 -75.9°
Maximum altitude 00:12:25 80° 189° (S) 3,355 - -77.1°
Drops below altitude 10° 00:31:08 10° 106° (ESE) 5,587 - -77.2°
Exits shadow 00:34:36 - 105° (ESE) 6,280 11.2 -77.1°
Sets 00:34:51 0° 105° (ESE) 6,332 11.2 -77.1°
